Offutt Air Force Base, NE

3:13 AM CDT on July 24, 2016 (GMT -0500)
Offutt Air Force Base

Weather History for KOFF - February, 2013

Change the Weather History Date:

Thursday, February 7, 2013

  Actual Average Record
Temperature  
Mean Temperature 34 °F -  
Max Temperature 39 °F 35 °F 59 °F (2009)
Min Temperature 30 °F 17 °F -4 °F (2014)
Degree Days  
Heating Degree Days 30    
Moisture  
Dew Point 31 °F    
Average Humidity 87    
Maximum Humidity 99    
Minimum Humidity 77    
Precipitation  
Precipitation 0.00 in - - ()
Sea Level Pressure  
Sea Level Pressure 30.08 in    
Wind  
Wind Speed 10 mph (NNW)    
Max Wind Speed 16 mph    
Max Gust Speed 24 mph    
Visibility 10 miles    
Events      
Averages and records for this station are not official NWS values.
T = Trace of Precipitation, MM = Missing Value Source: NWS Daily Summary

Daily Weather History Graph

Daily Weather History Graph

Search for Another Location

Airport or City:

Trip Planner

Search our weather history database for the weather conditions in past years. The results will help you decide how hot, cold, wet, or windy it might be!

Date:

Astronomy

Feb. 07, 2013 Rise Set
Actual Time 7:27 AM CST 5:48 PM CST
Civil Twilight 6:59 AM CST 6:17 PM CST
Nautical Twilight 6:26 AM CST 6:49 PM CST
Astronomical Twilight 5:54 AM CST 7:21 PM CST
Moon 5:09 AM CST (2/7) 3:13 PM CST (2/7)
Length of Visible Light 11h 18m
Length of Day
10h 20m
Waning Crescent, 9% of the Moon is Illuminated
Feb 7
Waning Crescent
Feb 10
New
Feb 17
First Quarter
Feb 25
Full
Mar 4
Last Quarter

Hourly Weather History & Observations

Time (CST) Temp. Windchill Dew Point Humidity Pressure Visibility Wind Dir Wind Speed Gust Speed Precip Events Conditions
12:55 AM 36.7 °F 32.9 °F 36.3 °F 99% 29.89 in 10.0 mi West 4.6 mph - N/A   Scattered Clouds
1:55 AM 36.7 °F 30.5 °F 36.5 °F 99% 29.89 in 10.0 mi WNW 8.1 mph - N/A   Partly Cloudy
2:55 AM 37.0 °F 31.6 °F 36.9 °F 99% 29.91 in 10.0 mi NW 6.9 mph - N/A   Overcast
3:55 AM 37.4 °F 31.4 °F 37.0 °F 99% 29.89 in 10.0 mi WNW 8.1 mph - N/A   Mostly Cloudy
4:55 AM 39.0 °F 33.4 °F 36.3 °F 90% 29.91 in 10.0 mi NW 8.1 mph - N/A   Partly Cloudy
5:55 AM 39.2 °F 35.0 °F 34.7 °F 84% 29.93 in 10.0 mi North 5.8 mph - N/A   Overcast
6:55 AM 37.6 °F 30.0 °F 34.5 °F 89% 29.96 in 10.0 mi North 11.5 mph - N/A   Clear
7:55 AM 36.1 °F 29.3 °F 34.2 °F 93% 30.00 in 10.0 mi North 9.2 mph - N/A   Clear
8:55 AM 35.2 °F 26.6 °F 34.5 °F 97% 30.04 in 10.0 mi NNW 12.7 mph - N/A   Mostly Cloudy
9:22 AM 35.6 °F 27.1 °F 33.8 °F 93% 30.04 in 10.0 mi North 12.7 mph - N/A   Mostly Cloudy
9:55 AM 35.2 °F 26.6 °F 34.2 °F 96% 30.06 in 10.0 mi NNW 12.7 mph - N/A   Mostly Cloudy
10:55 AM 36.5 °F 28.2 °F 32.5 °F 86% 30.09 in 10.0 mi NNW 12.7 mph 20.7 mph N/A   Mostly Cloudy
11:12 AM 37.4 °F 28.2 °F 33.8 °F 87% 30.09 in 10.0 mi NNW 16.1 mph - N/A   Mostly Cloudy
11:55 AM 36.9 °F 27.5 °F 31.8 °F 82% 30.10 in 10.0 mi NNW 16.1 mph 21.9 mph N/A   Mostly Cloudy
12:55 PM 34.9 °F 25.7 °F 30.4 °F 84% 30.09 in 10.0 mi North 13.8 mph 19.6 mph N/A   Overcast
1:29 PM 33.8 °F 24.8 °F 30.2 °F 87% 30.10 in 10.0 mi NNW 12.7 mph 20.7 mph N/A   Overcast
1:55 PM 33.8 °F 24.8 °F 30.0 °F 86% 30.10 in 6.0 mi North 12.7 mph - N/A   Overcast
2:38 PM 33.8 °F 24.3 °F 30.2 °F 87% 30.11 in 10.0 mi NNW 13.8 mph - N/A   Overcast
2:55 PM 33.6 °F 23.7 °F 29.3 °F 84% 30.11 in 10.0 mi North 15.0 mph - N/A   Overcast
3:55 PM 33.6 °F 23.3 °F 28.4 °F 81% 30.12 in 10.0 mi NNW 16.1 mph 21.9 mph N/A   Overcast
4:55 PM 33.1 °F 24.4 °F 27.7 °F 81% 30.15 in 10.0 mi North 11.5 mph 16.1 mph N/A   Overcast
5:55 PM 31.8 °F 21.8 °F 26.4 °F 80% 30.18 in 10.0 mi NNW 13.8 mph - N/A   Overcast
6:55 PM 31.6 °F 21.2 °F 26.1 °F 80% 30.20 in 10.0 mi North 15.0 mph 24.2 mph N/A   Overcast
7:55 PM 31.3 °F 22.1 °F 26.1 °F 81% 30.23 in 10.0 mi North 11.5 mph 19.6 mph N/A   Overcast
8:55 PM 31.1 °F 22.4 °F 25.5 °F 80% 30.25 in 10.0 mi North 10.4 mph - N/A   Overcast
9:55 PM 30.6 °F 21.8 °F 25.2 °F 80% 30.26 in 10.0 mi NNW 10.4 mph - N/A   Overcast
10:55 PM 30.6 °F 22.4 °F 24.1 °F 77% 30.27 in 10.0 mi North 9.2 mph - N/A   Overcast
11:55 PM 30.6 °F 24.7 °F 24.3 °F 77% 30.27 in 10.0 mi NNW 5.8 mph - N/A   Overcast